ERS-1 (21574 NORAD) Tracking and Keplerian Element Data

This shows tracking and keplerian element data for the satellite.

Feedback or suggestion? Click here.




ElementValue
Catalog21574
NameERS-1
Epoch Orbit70258
Epoch Day12.91157718
Epoch Year2024
RAAN1.2037
Inclination98.7653
Eccentricity0.0033006
Argument of Perigee16.5524
Mean Anonmoly343.6732
Mean Motion14.38347493
Decay Rate5.22E-06
L11 21574U 91050A 24012.91157718 .00000522 00000+0 18549-3 0 9990
L22 21574 98.7653 1.2037 0033006 16.5524 343.6732 14.38347493702583



Live tracking and technical data element details for ERS-1 (NORAD 21574). ERS-1 can be tracked NOW for your location showing map with azimuth and elevation plus other details from your city location.







IsCatalogInMostPopularTable: catalog: 21574, numindb: 356
Update: records affected: 1



GetName: 21574 ERS-1

Hit Count: updated at: Sun, 14 Apr 2024 23:01:04 GMT